Location: Zagreb
(45.8000°N, 16.0000°E)
Time: 16:35:54
(UTC+02:00)

Envisat - Visible Passes

Search period start: 06 October 2022 00:00
Search period end: 16 October 2022 00:00
Orbit: 764 x 765 km, 98.2° (Epoch: 05 October)

Date Brightness Start Highest point End Pass type
(mag) Time Alt. Az. Time Alt. Az. Time Alt. Az.
06 Oct 5.5 04:09:34 10° NE 04:13:08 19° E 04:16:39 10° SE visible
06 Oct 3.0 05:47:31 10° N 05:52:32 59° WNW 05:57:30 10° SSW visible
07 Oct 3.3 05:10:31 10° NNE 05:15:36 66° ESE 05:20:38 10° S visible
08 Oct 4.7 04:33:57 10° NNE 04:38:28 31° E 04:42:56 10° SSE visible
08 Oct 3.6 06:12:52 10° N 06:17:29 36° WNW 06:22:05 10° SW visible
09 Oct 5.8 03:58:17 10° NE 04:01:07 15° E 04:03:56 10° ESE visible
09 Oct 2.9 05:35:36 10° N 05:40:41 75° WNW 05:45:45 10° SSW visible
10 Oct 3.8 04:58:43 10° NNE 05:03:41 52° E 05:08:38 10° S visible
11 Oct 5.1 04:22:21 10° NE 04:26:30 25° E 04:30:37 10° SSE visible
11 Oct 3.3 06:00:52 10° N 06:05:42 45° WNW 06:10:30 10° SW visible
12 Oct 5.9 03:47:28 10° ENE 03:49:05 11° E 03:50:42 10° ESE visible
12 Oct 3.0 05:23:42 10° NNE 05:28:49 87° E 05:33:54 10° SSW visible
13 Oct 4.2 04:46:57 10° NNE 04:51:46 41° E 04:56:32 10° SSE visible
13 Oct 3.9 06:26:19 10° N 06:30:35 28° WNW 06:34:51 10° WSW visible
14 Oct 5.4 04:10:50 10° NE 04:14:30 20° E 04:18:09 10° SE visible
14 Oct 3.0 05:48:53 10° N 05:53:52 56° WNW 05:58:49 10° SSW visible
15 Oct 3.2 05:11:51 10° NNE 05:16:56 70° ESE 05:21:59 10° S visible
